HKE623 RJTT-VHHH

Flight info

Callsign HKE623
Flight time N/A
Altitude 34000
Route LAXAS Y56 TOHME Y54 TURFY Y24 KOSHI A1 IGMON/N0458F360 A1 ELATO V522 ABBEY
Aircraft A321/M-SDE3FGHIRWY/LB1

Departure

Time 2026-05-06 14:05
Airport Tokyo Haneda International Airport (RJTT)

Arrival

Time N/A
Airport Hong Kong International Airport (VHHH)
Time Latitude Longitude Altitude Speed Heading
2026-05-06 13:36 35.55038 139.77030 26 ft 0 kts 148°
2026-05-06 13:44 35.55047 139.77023 25 ft 2 kts 148°
2026-05-06 13:44 35.55065 139.77010 24 ft 2 kts 144°
2026-05-06 13:44 35.55074 139.77001 26 ft 2 kts 124°
2026-05-06 13:45 35.55081 139.76983 26 ft 2 kts 94°
2026-05-06 13:45 35.55080 139.76966 26 ft 0 kts 63°
2026-05-06 13:48 35.55081 139.76970 26 ft 1 kts 63°
2026-05-06 13:48 35.55085 139.76979 25 ft 2 kts 63°
2026-05-06 13:49 35.55097 139.77006 26 ft 5 kts 63°
2026-05-06 13:49 35.55124 139.77066 25 ft 10 kts 60°
2026-05-06 13:49 35.55164 139.77148 25 ft 12 kts 58°
2026-05-06 13:49 35.55163 139.77246 24 ft 11 kts 121°
2026-05-06 13:50 35.55094 139.77283 24 ft 12 kts 156°
2026-05-06 13:50 35.55020 139.77336 23 ft 13 kts 147°
2026-05-06 13:50 35.54942 139.77399 25 ft 14 kts 149°
2026-05-06 13:50 35.54850 139.77466 23 ft 17 kts 149°
2026-05-06 13:51 35.54740 139.77545 25 ft 21 kts 150°
2026-05-06 13:51 35.54607 139.77638 24 ft 22 kts 150°
2026-05-06 13:51 35.54474 139.77730 23 ft 22 kts 150°
2026-05-06 13:51 35.54346 139.77822 23 ft 21 kts 149°
2026-05-06 13:52 35.54221 139.77914 25 ft 20 kts 149°
2026-05-06 13:52 35.54112 139.77985 23 ft 14 kts 151°
2026-05-06 13:52 35.54067 139.78079 23 ft 14 kts 73°
2026-05-06 13:52 35.54092 139.78133 23 ft 0 kts 60°
2026-05-06 13:53 35.54094 139.78135 23 ft 1 kts 60°
2026-05-06 13:53 35.54103 139.78155 24 ft 4 kts 60°
2026-05-06 13:53 35.54122 139.78196 26 ft 8 kts 60°
2026-05-06 13:54 35.54153 139.78263 25 ft 9 kts 60°
2026-05-06 13:54 35.54188 139.78338 23 ft 11 kts 60°
2026-05-06 13:54 35.54226 139.78418 24 ft 11 kts 60°
2026-05-06 13:54 35.54264 139.78497 26 ft 11 kts 60°
2026-05-06 13:55 35.54301 139.78576 27 ft 11 kts 60°
2026-05-06 13:55 35.54341 139.78660 24 ft 12 kts 60°
2026-05-06 13:55 35.54385 139.78754 24 ft 13 kts 60°
2026-05-06 13:55 35.54432 139.78853 25 ft 14 kts 59°
2026-05-06 13:56 35.54481 139.78953 25 ft 14 kts 59°
2026-05-06 13:56 35.54529 139.79054 25 ft 13 kts 59°
2026-05-06 13:56 35.54573 139.79144 24 ft 12 kts 59°
2026-05-06 13:56 35.54613 139.79227 25 ft 11 kts 59°
2026-05-06 13:57 35.54644 139.79294 24 ft 8 kts 60°
2026-05-06 13:57 35.54654 139.79314 26 ft 0 kts 60°
2026-05-06 13:57 35.54656 139.79318 25 ft 1 kts 60°
2026-05-06 13:57 35.54661 139.79330 26 ft 1 kts 63°
2026-05-06 13:58 35.54657 139.79343 24 ft 4 kts 112°
2026-05-06 13:58 35.54615 139.79379 24 ft 11 kts 149°
2026-05-06 13:58 35.54509 139.79457 25 ft 25 kts 149°
2026-05-06 13:58 35.54348 139.79573 24 ft 26 kts 150°
2026-05-06 13:59 35.54191 139.79682 25 ft 25 kts 150°
2026-05-06 13:59 35.54041 139.79787 24 ft 25 kts 150°
2026-05-06 13:59 35.53894 139.79889 24 ft 24 kts 150°
2026-05-06 13:59 35.53755 139.79989 24 ft 23 kts 150°
2026-05-06 14:00 35.53617 139.80087 25 ft 23 kts 150°
2026-05-06 14:00 35.53481 139.80183 24 ft 22 kts 150°
2026-05-06 14:00 35.53350 139.80276 24 ft 21 kts 150°
2026-05-06 14:00 35.53225 139.80366 25 ft 21 kts 149°
2026-05-06 14:01 35.53102 139.80454 23 ft 20 kts 149°
2026-05-06 14:01 35.52992 139.80521 25 ft 17 kts 175°
2026-05-06 14:01 35.52897 139.80448 25 ft 16 kts 223°
2026-05-06 14:01 35.52813 139.80353 25 ft 16 kts 222°
2026-05-06 14:02 35.52729 139.80259 25 ft 16 kts 222°
2026-05-06 14:02 35.52670 139.80192 25 ft 9 kts 222°
2026-05-06 14:02 35.52623 139.80143 23 ft 9 kts 211°
2026-05-06 14:02 35.52567 139.80153 25 ft 9 kts 140°
2026-05-06 14:03 35.52524 139.80207 25 ft 9 kts 134°
2026-05-06 14:03 35.52481 139.80265 26 ft 9 kts 130°
2026-05-06 14:03 35.52439 139.80326 24 ft 10 kts 127°
2026-05-06 14:03 35.52452 139.80399 24 ft 10 kts 45°
2026-05-06 14:04 35.52508 139.80461 23 ft 17 kts 42°
2026-05-06 14:04 35.52768 139.80753 24 ft 87 kts 43°
2026-05-06 14:04 35.53380 139.81442 24 ft 149 kts 43°
2026-05-06 14:04 35.54221 139.82447 314 ft 172 kts 49°
2026-05-06 14:05 35.55045 139.83435 1072 ft 168 kts 45°
2026-05-06 14:05 35.55903 139.84418 1760 ft 170 kts 50°
2026-05-06 14:05 35.56397 139.85759 2097 ft 180 kts 93°
2026-05-06 14:05 35.56133 139.87291 2265 ft 192 kts 113°
2026-05-06 14:06 35.55702 139.88929 2407 ft 210 kts 112°
2026-05-06 14:06 35.55237 139.90721 2557 ft 228 kts 112°
2026-05-06 14:06 35.54747 139.92629 2983 ft 237 kts 113°
2026-05-06 14:06 35.53937 139.94340 3556 ft 230 kts 145°
2026-05-06 14:07 35.52528 139.95120 4113 ft 221 kts 180°
2026-05-06 14:07 35.51034 139.94919 4691 ft 220 kts 194°
2026-05-06 14:07 35.49522 139.94550 5288 ft 223 kts 194°
2026-05-06 14:07 35.47978 139.94171 5792 ft 232 kts 194°
2026-05-06 14:08 35.46357 139.93620 6019 ft 250 kts 206°
2026-05-06 14:08 35.44846 139.92525 6565 ft 254 kts 220°
2026-05-06 14:08 35.43589 139.90998 7187 ft 255 kts 228°
2026-05-06 14:08 35.42397 139.89406 7830 ft 257 kts 228°
2026-05-06 14:09 35.41175 139.87780 8458 ft 259 kts 228°
2026-05-06 14:09 35.39944 139.86143 9095 ft 262 kts 228°
2026-05-06 14:09 35.38699 139.84488 9737 ft 264 kts 229°
2026-05-06 14:09 35.37443 139.82819 10259 ft 271 kts 229°
2026-05-06 14:10 35.36129 139.81074 10375 ft 292 kts 229°
2026-05-06 14:10 35.34704 139.79183 10502 ft 311 kts 228°
2026-05-06 14:10 35.33194 139.77181 10711 ft 326 kts 228°
2026-05-06 14:10 35.31639 139.75127 11179 ft 331 kts 227°
2026-05-06 14:11 35.29919 139.73217 11680 ft 336 kts 222°
2026-05-06 14:11 35.28122 139.71345 12220 ft 340 kts 222°
2026-05-06 14:11 35.26330 139.69476 12758 ft 343 kts 222°
2026-05-06 14:11 35.24504 139.67570 13293 ft 347 kts 222°
2026-05-06 14:12 35.22658 139.65639 13876 ft 349 kts 222°
2026-05-06 14:12 35.20809 139.63707 14420 ft 350 kts 223°
2026-05-06 14:12 35.18948 139.61764 14969 ft 352 kts 223°
2026-05-06 14:12 35.17081 139.59821 15536 ft 353 kts 223°
2026-05-06 14:13 35.15232 139.57900 16092 ft 354 kts 223°
2026-05-06 14:13 35.13349 139.55945 16653 ft 355 kts 224°
2026-05-06 14:13 35.11464 139.53987 17211 ft 356 kts 224°
2026-05-06 14:13 35.09612 139.51963 17740 ft 356 kts 230°
2026-05-06 14:14 35.08114 139.49611 18184 ft 355 kts 240°
2026-05-06 14:14 35.07038 139.46894 18649 ft 355 kts 251°
2026-05-06 14:14 35.06424 139.43967 19095 ft 357 kts 258°
2026-05-06 14:14 35.05939 139.40985 19550 ft 358 kts 257°
2026-05-06 14:15 35.05445 139.37999 19999 ft 360 kts 257°
2026-05-06 14:15 35.04950 139.35029 20436 ft 361 kts 257°
2026-05-06 14:15 35.04445 139.32010 20876 ft 362 kts 256°
2026-05-06 14:15 35.03939 139.28993 21290 ft 364 kts 256°
2026-05-06 14:16 35.03430 139.25956 21696 ft 365 kts 256°
2026-05-06 14:16 35.02923 139.22942 22081 ft 366 kts 256°
2026-05-06 14:16 35.02405 139.19876 22470 ft 368 kts 255°
2026-05-06 14:16 35.01889 139.16813 22838 ft 369 kts 255°
2026-05-06 14:17 35.01368 139.13723 23210 ft 371 kts 255°
2026-05-06 14:17 35.00847 139.10634 23573 ft 372 kts 255°
2026-05-06 14:17 35.00329 139.07575 23942 ft 372 kts 255°
2026-05-06 14:17 34.99807 139.04493 24327 ft 370 kts 255°
2026-05-06 14:18 34.99285 139.01408 24667 ft 371 kts 256°
2026-05-06 14:18 34.98801 138.98309 24975 ft 373 kts 260°
2026-05-06 14:18 34.98616 138.95130 25281 ft 376 kts 263°
2026-05-06 14:18 34.98462 138.91980 25553 ft 377 kts 263°
2026-05-06 14:19 34.98296 138.88778 25863 ft 377 kts 262°
2026-05-06 14:19 34.98127 138.85578 26138 ft 379 kts 262°
2026-05-06 14:19 34.97956 138.82365 26399 ft 381 kts 263°
2026-05-06 14:19 34.97785 138.79136 26717 ft 382 kts 263°
2026-05-06 14:20 34.97613 138.75931 27020 ft 383 kts 263°
2026-05-06 14:20 34.97438 138.72669 27299 ft 384 kts 263°
2026-05-06 14:20 34.97262 138.69419 27568 ft 385 kts 263°
2026-05-06 14:20 34.97083 138.66157 27831 ft 386 kts 263°
2026-05-06 14:21 34.96903 138.62872 28050 ft 388 kts 263°
2026-05-06 14:21 34.96725 138.59608 28275 ft 390 kts 263°
2026-05-06 14:21 34.96547 138.56300 28527 ft 392 kts 263°
2026-05-06 14:21 34.96365 138.52973 28786 ft 393 kts 263°
2026-05-06 14:22 34.96182 138.49638 29088 ft 394 kts 263°
2026-05-06 14:22 34.96000 138.46299 29412 ft 394 kts 263°
2026-05-06 14:22 34.95822 138.43005 29753 ft 392 kts 263°
2026-05-06 14:22 34.95639 138.39686 30110 ft 391 kts 263°
2026-05-06 14:23 34.95453 138.36370 30417 ft 390 kts 263°
2026-05-06 14:23 34.95264 138.33067 30703 ft 390 kts 263°
2026-05-06 14:23 34.95075 138.29768 30958 ft 389 kts 262°
2026-05-06 14:23 34.94887 138.26475 31250 ft 388 kts 262°
2026-05-06 14:24 34.94701 138.23236 31499 ft 388 kts 262°
2026-05-06 14:24 34.94508 138.19944 31733 ft 388 kts 262°
2026-05-06 14:24 34.94315 138.16666 31982 ft 388 kts 262°
2026-05-06 14:24 34.94123 138.13382 32241 ft 388 kts 262°
2026-05-06 14:25 34.93932 138.10095 32508 ft 387 kts 262°
2026-05-06 14:25 34.93742 138.06822 32771 ft 387 kts 262°
2026-05-06 14:25 34.93552 138.03552 33001 ft 386 kts 262°
2026-05-06 14:25 34.93361 138.00284 33189 ft 387 kts 261°
2026-05-06 14:26 34.93169 137.97055 33386 ft 387 kts 261°
2026-05-06 14:26 34.92973 137.93769 33603 ft 388 kts 261°
2026-05-06 14:26 34.92776 137.90486 33826 ft 387 kts 261°
2026-05-06 14:26 34.92578 137.87207 34061 ft 387 kts 261°
2026-05-06 14:27 34.92180 137.80657 34139 ft 386 kts 261°
2026-05-06 14:27 34.91780 137.74157 34138 ft 386 kts 261°
2026-05-06 14:28 34.91255 137.67655 34133 ft 382 kts 253°
2026-05-06 14:28 34.89587 137.61581 34132 ft 379 kts 248°
2026-05-06 14:29 34.87762 137.55539 34124 ft 380 kts 248°
2026-05-06 14:29 34.85948 137.49516 34128 ft 380 kts 248°
2026-05-06 14:30 34.84445 137.44466 34132 ft 381 kts 248°
2026-05-06 14:30 34.82428 137.37372 34135 ft 381 kts 249°
2026-05-06 14:31 34.80991 137.32289 34137 ft 381 kts 248°
2026-05-06 14:31 34.79256 137.26208 34139 ft 381 kts 248°
2026-05-06 14:32 34.77497 137.20101 34144 ft 381 kts 248°
2026-05-06 14:32 34.75739 137.14006 34142 ft 381 kts 248°
2026-05-06 14:33 34.74002 137.08002 34137 ft 375 kts 248°
2026-05-06 14:33 34.72267 137.02023 34136 ft 375 kts 248°
2026-05-06 14:34 34.70394 136.96092 34124 ft 374 kts 240°
2026-05-06 14:34 34.67372 136.90997 34125 ft 375 kts 233°
2026-05-06 14:35 34.64135 136.86004 34130 ft 375 kts 233°
2026-05-06 14:35 34.60921 136.81036 34114 ft 376 kts 233°
2026-05-06 14:36 34.57678 136.76031 34109 ft 378 kts 233°
2026-05-06 14:36 34.54422 136.71003 34114 ft 379 kts 233°
2026-05-06 14:37 34.51164 136.65981 34119 ft 380 kts 232°
2026-05-06 14:37 34.47880 136.60946 34135 ft 380 kts 232°
2026-05-06 14:38 34.44611 136.55944 34139 ft 381 kts 233°
2026-05-06 14:38 34.41325 136.50901 34141 ft 381 kts 233°
2026-05-06 14:39 34.38032 136.45864 34150 ft 381 kts 232°
2026-05-06 14:39 34.34736 136.40822 34156 ft 381 kts 233°
2026-05-06 14:40 34.31468 136.35823 34144 ft 381 kts 232°
2026-05-06 14:40 34.28165 136.30802 34147 ft 381 kts 232°
2026-05-06 14:41 34.24881 136.25806 34156 ft 381 kts 232°
2026-05-06 14:41 34.21587 136.20796 34156 ft 381 kts 232°
2026-05-06 14:42 34.18281 136.15780 34138 ft 381 kts 232°
2026-05-06 14:42 34.14971 136.10761 34142 ft 382 kts 232°
2026-05-06 14:43 34.11668 136.05752 34140 ft 382 kts 233°
2026-05-06 14:43 34.08348 136.00747 34150 ft 382 kts 232°
2026-05-06 14:44 34.05017 135.95736 34153 ft 382 kts 232°
2026-05-06 14:45 34.00082 135.88300 34136 ft 380 kts 232°
2026-05-06 14:45 33.96759 135.83307 34143 ft 381 kts 232°
2026-05-06 14:46 33.93451 135.78342 34138 ft 381 kts 232°
2026-05-06 14:46 33.90120 135.73344 34130 ft 384 kts 232°
2026-05-06 14:47 33.86766 135.68311 34134 ft 384 kts 232°
2026-05-06 14:47 33.83433 135.63312 34140 ft 384 kts 232°
2026-05-06 14:48 33.80084 135.58304 34140 ft 384 kts 232°
2026-05-06 14:48 33.76730 135.53324 34134 ft 384 kts 232°
2026-05-06 14:49 33.73366 135.48322 34127 ft 384 kts 232°
2026-05-06 14:49 33.70027 135.43352 34126 ft 384 kts 232°
2026-05-06 14:50 33.66667 135.38351 34127 ft 384 kts 232°
2026-05-06 14:50 33.63301 135.33358 34128 ft 384 kts 232°
2026-05-06 14:51 33.59931 135.28376 34133 ft 384 kts 232°
2026-05-06 14:51 33.56586 135.23429 34135 ft 384 kts 232°
2026-05-06 14:52 33.53215 135.18456 34133 ft 384 kts 232°
2026-05-06 14:52 33.49847 135.13483 34132 ft 384 kts 232°
2026-05-06 14:53 33.46479 135.08513 34127 ft 384 kts 232°
2026-05-06 14:53 33.43124 135.03580 34119 ft 384 kts 232°
2026-05-06 14:54 33.39742 134.98613 34132 ft 384 kts 232°
2026-05-06 14:54 33.36361 134.93648 34133 ft 384 kts 232°
2026-05-06 14:55 33.33008 134.88719 34137 ft 384 kts 232°
2026-05-06 14:55 33.29627 134.83755 34121 ft 384 kts 232°
2026-05-06 14:56 33.26263 134.78844 34130 ft 384 kts 232°
2026-05-06 14:56 33.22871 134.73890 34131 ft 384 kts 232°
2026-05-06 14:57 33.19502 134.68969 34131 ft 384 kts 232°
2026-05-06 14:57 33.16392 134.63799 34107 ft 384 kts 243°
2026-05-06 14:58 33.14670 134.57754 34127 ft 385 kts 251°
2026-05-06 14:58 33.13169 134.51637 34125 ft 385 kts 251°
2026-05-06 14:59 33.11657 134.45491 34128 ft 386 kts 251°
2026-05-06 14:59 33.10145 134.39344 34122 ft 386 kts 251°
2026-05-06 15:00 33.08634 134.33223 34118 ft 386 kts 251°
2026-05-06 15:00 33.07106 134.27070 34124 ft 386 kts 251°
2026-05-06 15:01 33.05592 134.20945 34140 ft 387 kts 251°
2026-05-06 15:01 33.04100 134.14775 34115 ft 387 kts 251°
2026-05-06 15:02 33.02613 134.08599 34119 ft 387 kts 251°
2026-05-06 15:02 33.01112 134.02422 34133 ft 388 kts 251°
2026-05-06 15:03 32.99617 133.96283 34130 ft 388 kts 251°
2026-05-06 15:03 32.98101 133.90091 34125 ft 388 kts 251°
2026-05-06 15:04 32.96589 133.83939 34113 ft 389 kts 251°
2026-05-06 15:04 32.95070 133.77747 34129 ft 389 kts 251°
2026-05-06 15:05 32.93552 133.71579 34122 ft 390 kts 251°
2026-05-06 15:05 32.92020 133.65369 34118 ft 390 kts 251°
2026-05-06 15:06 32.90482 133.59165 34132 ft 390 kts 251°
2026-05-06 15:06 32.88957 133.53011 34109 ft 391 kts 251°
2026-05-06 15:07 32.87418 133.46795 34110 ft 391 kts 251°
2026-05-06 15:07 32.85867 133.40566 34125 ft 392 kts 251°
2026-05-06 15:08 32.84317 133.34345 34127 ft 392 kts 251°
2026-05-06 15:08 32.82771 133.28166 34113 ft 392 kts 251°
2026-05-06 15:09 32.81209 133.21929 34123 ft 393 kts 251°
2026-05-06 15:09 32.79655 133.15736 34123 ft 393 kts 251°
2026-05-06 15:10 32.78087 133.09507 34126 ft 394 kts 250°
2026-05-06 15:10 32.76504 133.03269 34126 ft 394 kts 250°
2026-05-06 15:11 32.74501 132.97269 34108 ft 392 kts 240°
2026-05-06 15:11 32.71850 132.91598 34104 ft 393 kts 240°
2026-05-06 15:12 32.69190 132.85908 34109 ft 394 kts 240°
2026-05-06 15:12 32.66531 132.80210 34115 ft 394 kts 240°
2026-05-06 15:13 32.63888 132.74545 34112 ft 394 kts 240°
2026-05-06 15:13 32.61227 132.68841 34115 ft 395 kts 240°
2026-05-06 15:14 32.58563 132.63138 34122 ft 395 kts 240°
2026-05-06 15:14 32.55892 132.57467 34096 ft 396 kts 240°
2026-05-06 15:15 32.53190 132.51729 34100 ft 398 kts 240°
2026-05-06 15:15 32.50491 132.45999 34109 ft 398 kts 240°
2026-05-06 15:16 32.47805 132.40301 34123 ft 398 kts 240°
2026-05-06 15:16 32.45104 132.34581 34077 ft 401 kts 240°
2026-05-06 15:17 32.42357 132.28786 34098 ft 403 kts 240°
2026-05-06 15:17 32.39628 132.23031 34116 ft 402 kts 240°
2026-05-06 15:18 32.36886 132.17253 34095 ft 403 kts 240°
2026-05-06 15:18 32.34580 132.12402 34071 ft 407 kts 240°
2026-05-06 15:19 32.31806 132.06582 34093 ft 409 kts 240°
2026-05-06 15:19 32.29018 132.00729 34114 ft 407 kts 240°
2026-05-06 15:20 32.26224 131.94868 34100 ft 413 kts 241°
2026-05-06 15:20 32.23364 131.88885 34103 ft 424 kts 241°
2026-05-06 15:21 32.20476 131.82869 34094 ft 412 kts 239°
2026-05-06 15:21 32.17670 131.77026 34109 ft 408 kts 241°
2026-05-06 15:22 32.14833 131.71125 34105 ft 420 kts 241°
2026-05-06 15:22 32.11902 131.65031 34109 ft 431 kts 241°
2026-05-06 15:23 32.08983 131.58981 34108 ft 421 kts 240°
2026-05-06 15:23 32.06076 131.52954 34110 ft 425 kts 242°
2026-05-06 15:24 32.03124 131.46843 34113 ft 437 kts 242°
2026-05-06 15:24 32.00079 131.40557 34106 ft 441 kts 241°
2026-05-06 15:25 31.97088 131.34405 34107 ft 427 kts 241°
2026-05-06 15:25 31.94108 131.28276 34115 ft 439 kts 242°
2026-05-06 15:26 31.91030 131.21952 34118 ft 447 kts 242°
2026-05-06 15:26 31.87926 131.15583 34113 ft 445 kts 241°
2026-05-06 15:27 31.84876 131.09343 34118 ft 445 kts 242°
2026-05-06 15:27 31.81749 131.02957 34110 ft 451 kts 242°
2026-05-06 15:28 31.78625 130.96581 34108 ft 452 kts 242°
2026-05-06 15:28 31.75479 130.90171 34120 ft 452 kts 243°
2026-05-06 15:29 31.72339 130.83792 34103 ft 453 kts 242°
2026-05-06 15:29 31.69169 130.77367 34097 ft 454 kts 243°
2026-05-06 15:30 31.66003 130.70952 34096 ft 455 kts 243°
2026-05-06 15:30 31.62821 130.64511 34110 ft 454 kts 242°
2026-05-06 15:31 31.59669 130.58149 34116 ft 453 kts 242°
2026-05-06 15:31 31.56512 130.51770 34111 ft 452 kts 242°
2026-05-06 15:32 31.51769 130.42230 34079 ft 453 kts 243°
2026-05-06 15:32 31.48581 130.35844 34074 ft 455 kts 243°
2026-05-06 15:33 31.45376 130.29421 34070 ft 456 kts 243°
2026-05-06 15:33 31.42188 130.23030 34078 ft 456 kts 243°
2026-05-06 15:34 31.38979 130.16618 34076 ft 457 kts 243°
2026-05-06 15:34 31.35754 130.10185 34080 ft 457 kts 243°
2026-05-06 15:35 31.32548 130.03806 34081 ft 457 kts 243°
2026-05-06 15:35 31.29308 129.97390 34081 ft 458 kts 241°
2026-05-06 15:36 31.25472 129.91398 34076 ft 461 kts 235°
2026-05-06 15:36 31.21533 129.85508 34082 ft 462 kts 235°
2026-05-06 15:37 31.17572 129.79588 34072 ft 462 kts 235°
2026-05-06 15:37 31.13622 129.73687 34066 ft 462 kts 236°
2026-05-06 15:38 31.09652 129.67767 34063 ft 463 kts 236°
2026-05-06 15:38 31.05694 129.61878 34081 ft 463 kts 235°
2026-05-06 15:39 31.01705 129.55966 34055 ft 463 kts 236°
2026-05-06 15:39 30.97718 129.50048 34071 ft 464 kts 235°
2026-05-06 15:40 30.93753 129.44169 34072 ft 464 kts 235°
2026-05-06 15:40 30.89753 129.38255 34073 ft 464 kts 235°
2026-05-06 15:41 30.85750 129.32344 34063 ft 464 kts 235°
2026-05-06 15:41 30.81749 129.26442 34064 ft 465 kts 235°
2026-05-06 15:42 30.77766 129.20569 34066 ft 465 kts 235°
2026-05-06 15:42 30.73791 129.14613 34069 ft 464 kts 236°
2026-05-06 15:43 30.69888 129.08616 34066 ft 464 kts 237°
2026-05-06 15:43 30.66002 129.02651 34062 ft 465 kts 236°
2026-05-06 15:44 30.62064 128.96680 34064 ft 465 kts 236°
2026-05-06 15:44 30.58141 128.90746 34065 ft 465 kts 236°
2026-05-06 15:45 30.54205 128.84794 34059 ft 465 kts 236°
2026-05-06 15:45 30.50252 128.78830 34063 ft 465 kts 236°
2026-05-06 15:46 30.46341 128.72911 34059 ft 465 kts 236°
2026-05-06 15:46 30.42391 128.66950 34059 ft 465 kts 236°
2026-05-06 15:47 30.38460 128.61038 34052 ft 465 kts 236°
2026-05-06 15:47 30.34497 128.55096 34057 ft 465 kts 236°
2026-05-06 15:48 30.30539 128.49169 34059 ft 464 kts 236°
2026-05-06 15:48 30.26608 128.43285 34059 ft 464 kts 236°
2026-05-06 15:49 30.22657 128.37359 34059 ft 464 kts 236°
2026-05-06 15:49 30.18688 128.31435 34059 ft 465 kts 236°
2026-05-06 15:50 30.14744 128.25568 34056 ft 465 kts 236°
2026-05-06 15:50 30.10766 128.19656 34056 ft 465 kts 236°
2026-05-06 15:51 30.06809 128.13763 34055 ft 464 kts 236°
2026-05-06 15:51 30.02863 128.07901 34058 ft 464 kts 236°
2026-05-06 15:52 29.98898 128.02032 34055 ft 464 kts 236°
2026-05-06 15:52 29.94924 127.96161 34056 ft 464 kts 236°
2026-05-06 15:53 29.90974 127.90322 34056 ft 463 kts 236°
2026-05-06 15:53 29.87012 127.84460 34059 ft 463 kts 236°
2026-05-06 15:54 29.82930 127.78688 34052 ft 464 kts 233°
2026-05-06 15:54 29.78704 127.73120 34055 ft 464 kts 232°
2026-05-06 15:55 29.74441 127.67527 34051 ft 464 kts 232°
2026-05-06 15:55 29.70229 127.61908 34056 ft 462 kts 233°
2026-05-06 15:56 29.66074 127.56315 34051 ft 462 kts 233°
2026-05-06 15:56 29.61874 127.50688 34051 ft 462 kts 233°
2026-05-06 15:57 29.57698 127.45107 34048 ft 462 kts 233°
2026-05-06 15:57 29.53672 127.39368 34047 ft 460 kts 236°
2026-05-06 15:58 29.49779 127.33593 34048 ft 460 kts 236°
2026-05-06 15:58 29.45831 127.27791 34054 ft 460 kts 235°
2026-05-06 15:59 29.41846 127.22046 34056 ft 460 kts 235°
2026-05-06 15:59 29.37858 127.16332 34051 ft 459 kts 235°
2026-05-06 16:00 29.33869 127.10608 34056 ft 459 kts 235°
2026-05-06 16:00 29.29906 127.04917 34056 ft 458 kts 235°
2026-05-06 16:01 29.25929 126.99207 34055 ft 458 kts 235°
2026-05-06 16:01 29.21975 126.93538 34048 ft 457 kts 235°
2026-05-06 16:02 29.18000 126.87845 34051 ft 456 kts 235°
2026-05-06 16:02 29.14042 126.82181 34052 ft 456 kts 235°
2026-05-06 16:03 29.10095 126.76547 34050 ft 455 kts 235°
2026-05-06 16:03 29.06124 126.70897 34037 ft 455 kts 235°
2026-05-06 16:04 29.02161 126.65257 34046 ft 454 kts 235°
2026-05-06 16:04 28.98230 126.59658 34047 ft 454 kts 235°
2026-05-06 16:05 28.94229 126.54065 34051 ft 454 kts 234°
2026-05-06 16:05 28.90119 126.48554 34055 ft 454 kts 233°
2026-05-06 16:06 28.86031 126.43117 34060 ft 453 kts 233°
2026-05-06 16:06 28.82623 126.38548 34062 ft 452 kts 233°
2026-05-06 16:07 28.77890 126.32164 34055 ft 452 kts 233°
2026-05-06 16:07 28.74512 126.27607 34054 ft 451 kts 233°
2026-05-06 16:08 28.70439 126.22149 34043 ft 451 kts 233°
2026-05-06 16:08 28.66386 126.16747 34047 ft 450 kts 233°
2026-05-06 16:09 28.62324 126.11295 34047 ft 449 kts 234°
2026-05-06 16:09 28.58392 126.05762 34048 ft 448 kts 236°
2026-05-06 16:10 28.54537 126.00218 34050 ft 448 kts 236°
2026-05-06 16:10 28.50654 125.94702 34050 ft 448 kts 235°
2026-05-06 16:11 28.46721 125.89186 34047 ft 448 kts 235°
2026-05-06 16:11 28.42778 125.83668 34050 ft 448 kts 235°
2026-05-06 16:12 28.38869 125.78186 34040 ft 448 kts 235°
2026-05-06 16:12 28.34945 125.72676 34049 ft 448 kts 235°
2026-05-06 16:13 28.31016 125.67166 34048 ft 448 kts 235°
2026-05-06 16:13 28.27112 125.61719 34050 ft 448 kts 235°
2026-05-06 16:14 28.23177 125.56235 34050 ft 447 kts 235°
2026-05-06 16:14 28.19253 125.50763 34044 ft 447 kts 235°
2026-05-06 16:15 28.15313 125.45279 34050 ft 447 kts 235°
2026-05-06 16:15 28.11400 125.39838 34052 ft 447 kts 235°
2026-05-06 16:16 28.07465 125.34378 34054 ft 447 kts 235°
2026-05-06 16:16 28.03530 125.28927 34046 ft 446 kts 235°
2026-05-06 16:17 27.99620 125.23523 34045 ft 446 kts 234°
2026-05-06 16:17 27.95684 125.18082 34052 ft 445 kts 235°
2026-05-06 16:18 27.91772 125.12653 34054 ft 444 kts 235°